#timestamp,LO_Frequency,Hit,StdDev 
1615834815.9,286046997.7,N
1615834835.7,286046998.2,N
1615834855.5,286047002.6,N
1615834875.4,286047000.3,N
1615834895.2,286047001.9,N
1615834915.0,286047002.0,N
1615834916.0,286047002.0,N
1615834935.8,286047004.1,N
1615834955.6,286047000.7,N
1615834975.5,286046998.9,N
1615834995.3,286047001.2,N
1615835015.1,286046998.1,N
1615835035.9,286047001.0,N
1615835055.7,286046999.2,N
1615835075.6,286046996.5,N
1615835095.4,286046995.8,N
1615835115.2,286046996.9,N
1615835135.1,286046995.9,N
1615835136.0,286046995.9,N
1615835155.8,286046995.3,N
1615835175.6,286046997.9,N
1615835195.5,286046994.9,N
1615835215.3,286046996.5,N
1615835235.1,286046998.8,N
1615835255.9,286046999.3,N
1615835275.7,286046998.4,N
1615835295.6,286046999.4,N
1615835315.4,286046996.7,N
1615835335.2,286046998.9,N
1615835355.1,286047002.5,N
1615835356.0,286047002.5,N
1615835375.8,286046998.1,N
1615835395.6,286046996.8,N
1615835415.5,286046996.4,N
1615835435.3,286046993.3,N
1615835455.2,286046996.3,N
1615835475.9,286046996.2,N
1615835495.7,286046996.4,N
1615835515.6,286046991.7,Y
1615835535.4,286046993.5,P
1615835555.2,286046993.6,N
1615835575.1,286046990.4,P
1615835576.0,286046990.4,Y
1615835595.8,286046996.9,P
1615835615.7,286047002.2,N
1615835635.5,286047004.3,N
1615835655.3,286047001.5,N
1615835675.2,286046999.9,N
1615835695.0,286047001.8,N
1615835695.9,286047001.8,N
1615835715.8,286047001.4,N
1615835735.6,286046999.8,N
1615835755.4,286047003.6,N
1615835775.3,286047002.1,N
1615835795.1,286046999.8,N
1615835815.8,286047001.1,N
1615835835.7,286046997.2,N
1615835855.5,286046995.4,N
1615835875.3,286046997.5,N
1615835895.2,286046997.9,N
1615835915.0,286046993.5,N
1615835915.9,286046993.5,N
1615835935.8,286046993.9,N
1615835955.6,286046991.9,N
1615835975.4,286046994.0,N
1615835995.3,286046994.1,N
1615836015.1,286046993.9,N
1615836035.8,286046994.3,N
1615836055.7,286046992.2,N
1615836075.5,286046992.0,N
1615836095.4,286046994.0,N
1615836115.2,286046993.3,N
1615836135.0,286046995.6,N
1615836135.9,286046995.6,N
1615836155.8,286046996.2,N
1615836175.6,286046997.9,N
1615836195.4,286046995.0,N
1615836215.3,286046997.4,N
1615836235.1,286047000.4,N
1615836255.9,286047000.3,N
1615836275.7,286046998.5,N
1615836295.5,286046996.9,N
1615836315.4,286046996.6,N
1615836335.2,286046999.3,N
1615836355.0,286046997.6,N
1615836355.9,286046997.6,N
1615836375.8,286046997.4,N
1615836395.6,286046996.4,N
1615836415.5,286046997.4,N
1615836435.3,286046996.4,N
1615836455.1,286046995.4,N
1615836475.9,286046997.5,N
1615836495.7,286046998.0,N
1615836515.5,286046997.7,N
1615836535.4,286046997.1,N
1615836555.2,286046997.8,N
1615836575.1,286046994.5,N
1615836576.0,286046994.5,N
1615836595.8,286046993.9,Y
1615836615.6,286046999.2,P
1615836635.5,286046999.2,N
1615836655.3,286046996.7,N
1615836675.1,286046998.1,N
1615836695.9,286047000.1,N
1615836715.7,286047001.5,N
1615836735.6,286047004.0,N
1615836755.4,286047005.3,N
1615836775.2,286047007.2,N
1615836795.1,286047005.6,N
1615836796.0,286047005.6,N
1615836815.8,286047007.6,N
1615836835.6,286047007.1,N
1615836855.5,286047006.6,N
1615836875.3,286047002.9,N
1615836895.2,286047006.0,N
1615836915.9,286047005.5,N
1615836935.7,286047004.5,N
1615836955.6,286047004.5,N
1615836975.4,286047002.9,N
1615836995.2,286047004.7,N
1615837015.1,286047003.1,N
1615837016.0,286047003.1,N
1615837035.8,286047000.4,N
1615837055.7,286047002.3,N
1615837075.5,286047003.8,N
1615837095.3,286047000.6,N
1615837115.2,286047001.2,N
1615837135.0,286047000.2,N
1615837135.9,286047000.2,N
1615837155.7,286046998.2,N
1615837175.6,286047000.5,N
1615837195.4,286047001.7,N
1615837215.3,286047001.5,N
1615837235.1,286047001.4,N
1615837236.0,286047001.4,N
1615837255.8,286047000.7,N
1615837275.7,286046998.9,N
1615837295.5,286047001.5,N
1615837315.3,286047000.7,N
1615837335.2,286047011.9,Y
1615837355.0,286046997.0,P
1615837355.9,286046997.0,N
1615837375.8,286046998.1,N
1615837395.6,286046999.3,N
1615837415.4,286046996.5,N
1615837435.3,286046996.1,N
1615837455.1,286046997.4,N
1615837475.8,286046997.5,N
1615837495.7,286046997.3,N
1615837515.5,286046998.1,N
1615837535.4,286046998.4,N
1615837555.2,286046998.2,N
1615837575.0,286047001.2,N
1615837575.9,286047001.2,N
1615837595.8,286047001.2,N
1615837615.6,286046997.2,N
1615837635.4,286046998.6,N
1615837655.3,286046999.2,N
1615837675.1,286046997.3,N
1615837695.9,286046999.1,N
1615837715.7,286046999.5,N
1615837735.5,286046997.1,N
1615837755.4,286046997.3,N
1615837775.2,286047002.6,N
1615837795.0,286046999.8,N
1615837795.9,286046999.8,N
1615837815.8,286046998.9,N
1615837835.6,286046998.2,N
1615837855.5,286046998.2,N
1615837875.3,286046998.1,N
1615837895.1,286046999.0,N
1615837915.9,286046999.5,N
1615837935.7,286046999.5,N
1615837955.5,286046997.5,N
1615837975.4,286046994.9,Y
1615837995.2,286046996.5,P
1615838015.1,286046996.8,P
1615838016.0,286046996.8,P
1615838035.8,286047000.7,N
1615838055.6,286046999.5,N
1615838075.5,286046999.4,N
1615838095.3,286046996.9,N
1615838115.1,286047001.2,N
1615838135.9,286047011.9,Y
1615838155.7,286047003.3,P
1615838175.6,286047005.8,N
1615838195.4,286047007.4,N
1615838215.2,286047006.7,N
1615838235.1,286047004.6,N
1615838236.0,286047004.6,N
1615838255.8,286047008.6,Y
1615838275.6,286047002.0,P
1615838295.5,286046999.9,N
1615838315.3,286047000.2,N
1615838335.2,286047004.4,N
1615838355.9,286047004.5,N
1615838375.7,286047004.6,N
1615838395.6,286047004.3,N
